Overview Statistics Trail Chart Weather Telemetry Raw packets
 

This is the latest recevied weather packets stored in our database for station/object K4WCH. If no packets are shown the sender has not sent any weather packets the latest 10 day(s).

<< 29 30 31 32 33 34 35 >>
Time Temp. Humidity Pressure Rain* Wind** Luminosity Snow
1788464256 27.78° C 87% 1014.4 hPa 0 mm - 187 W/m² -
1788463952 27.78° C 88% 1014.4 hPa 0 mm - 185 W/m² -
1788463648 27.78° C 88% 1014.4 hPa 0 mm - 183 W/m² -
1788463343 27.78° C 87% 1014.3 hPa 0 mm - 175 W/m² -
1788463039 27.78° C 88% 1014.3 hPa 0 mm - 173 W/m² -
1788462735 27.78° C 87% 1014.5 hPa - - 165 W/m² -
1788462429 27.22° C 87% 1014.6 hPa - - 151 W/m² -
1788462129 27.22° C 87% 1014.6 hPa - - 137 W/m² -
1788461824 27.78° C 85% 1014.5 hPa - - 125 W/m² -
1788461518 28.33° C 86% 1014.6 hPa - - 132 W/m² -
1788461215 28.33° C 85% 1014.6 hPa - - 167 W/m² -
1788460920 28.33° C 85% 1014.8 hPa - - 181 W/m² -
1788460609 28.33° C 84% 1015 hPa - - 186 W/m² -
1788460305 28.33° C 84% 1014.9 hPa - - 178 W/m² -
1788460003 28.89° C 83% 1015.1 hPa - - 116 W/m² -
1788459700 28.89° C 84% 1015 hPa - - 200 W/m² -
1788459397 28.89° C 83% 1015 hPa - - 246 W/m² -
1788459092 28.89° C 81% 1015 hPa - - 289 W/m² -
1788458788 29.44° C 81% 1015 hPa - - 351 W/m² -
1788458482 29.44° C 81% 1015.2 hPa - - 406 W/m² -
1788458181 29.44° C 81% 1015.3 hPa - - 388 W/m² -
1788457881 29.44° C 81% 1015.4 hPa - - 354 W/m² -
1788457576 29.44° C 81% 1015.2 hPa - - 363 W/m² -
1788457271 30° C 79% 1015.1 hPa 0 mm - 475 W/m² -
1788456966 29.44° C 82% 1015.1 hPa 0 mm - 609 W/m² -

* Rain latest hour (hover to see other rain measurements)
** Current wind speed in m/s (hover to see current wind gust speed)